Year,Month,Day,Hour,Minute,Value (Times are PST for temperature in C)
2012,08,16,00,00,20.60
2012,08,16,00,01,20.50
2012,08,16,00,02,20.50
2012,08,16,00,03,20.50
2012,08,16,00,04,20.40
2012,08,16,00,05,20.40
2012,08,16,00,06,20.40
2012,08,16,00,07,20.40
2012,08,16,00,08,20.40
2012,08,16,00,09,20.30
2012,08,16,00,10,20.30
2012,08,16,00,11,20.30
2012,08,16,00,12,20.30
2012,08,16,00,13,20.20
2012,08,16,00,14,20.20
2012,08,16,00,15,20.20
2012,08,16,00,16,20.20
2012,08,16,00,17,20.10
2012,08,16,00,18,20.10
2012,08,16,00,19,20.10
2012,08,16,00,20,20.00
2012,08,16,00,21,20.00
2012,08,16,00,22,20.00
2012,08,16,00,23,19.90
2012,08,16,00,24,19.90
2012,08,16,00,25,19.90
2012,08,16,00,26,19.90
2012,08,16,00,27,19.90
2012,08,16,00,28,19.80
2012,08,16,00,29,19.80
2012,08,16,00,30,19.80
2012,08,16,00,31,19.80
2012,08,16,00,32,19.80
2012,08,16,00,33,19.80
2012,08,16,00,34,19.80
2012,08,16,00,35,19.70
2012,08,16,00,36,19.70
2012,08,16,00,37,19.70
2012,08,16,00,38,19.70
2012,08,16,00,39,19.70
2012,08,16,00,40,19.70
2012,08,16,00,41,19.70
2012,08,16,00,42,19.60
2012,08,16,00,43,19.60
2012,08,16,00,44,19.60
2012,08,16,00,45,19.60
2012,08,16,00,46,19.60
2012,08,16,00,47,19.60
2012,08,16,00,48,19.60
2012,08,16,00,49,19.60
2012,08,16,00,50,19.60
2012,08,16,00,51,19.60
2012,08,16,00,52,19.50
2012,08,16,00,53,19.50
2012,08,16,00,54,19.50
2012,08,16,00,55,19.50
2012,08,16,00,56,19.40
2012,08,16,00,57,19.40
2012,08,16,00,58,19.40
2012,08,16,00,59,19.40
2012,08,16,01,00,19.40
2012,08,16,01,01,19.30
2012,08,16,01,02,19.30
2012,08,16,01,03,19.30
2012,08,16,01,04,19.30
2012,08,16,01,05,19.20
2012,08,16,01,06,19.20
2012,08,16,01,07,19.20
2012,08,16,01,08,19.20
2012,08,16,01,09,19.10
2012,08,16,01,10,19.10
2012,08,16,01,11,19.10
2012,08,16,01,12,19.00
2012,08,16,01,13,19.00
2012,08,16,01,14,18.90
2012,08,16,01,15,18.90
2012,08,16,01,16,18.90
2012,08,16,01,17,18.90
2012,08,16,01,18,18.80
2012,08,16,01,19,18.80
2012,08,16,01,20,18.80
2012,08,16,01,21,18.80
2012,08,16,01,22,18.70
2012,08,16,01,23,18.70
2012,08,16,01,24,18.70
2012,08,16,01,25,18.70
2012,08,16,01,26,18.70
2012,08,16,01,27,18.70
2012,08,16,01,28,18.70
2012,08,16,01,29,18.70
2012,08,16,01,30,18.60
2012,08,16,01,31,18.60
2012,08,16,01,32,18.60
2012,08,16,01,33,18.60
2012,08,16,01,34,18.60
2012,08,16,01,35,18.60
2012,08,16,01,36,18.60
2012,08,16,01,37,18.60
2012,08,16,01,38,18.60
2012,08,16,01,39,18.50
2012,08,16,01,40,18.50
2012,08,16,01,41,18.50
2012,08,16,01,42,18.50
2012,08,16,01,43,18.50
2012,08,16,01,44,18.40
2012,08,16,01,45,18.40
2012,08,16,01,46,18.40
2012,08,16,01,47,18.40
2012,08,16,01,48,18.40
2012,08,16,01,49,18.40
2012,08,16,01,50,18.40
2012,08,16,01,51,18.40
2012,08,16,01,52,18.40
2012,08,16,01,53,18.40
2012,08,16,01,54,18.40
2012,08,16,01,55,18.40
2012,08,16,01,56,18.40
2012,08,16,01,57,18.40
2012,08,16,01,58,18.40
2012,08,16,01,59,18.40
2012,08,16,02,00,18.40
2012,08,16,02,01,18.40
2012,08,16,02,02,18.40
2012,08,16,02,03,18.40
2012,08,16,02,04,18.40
2012,08,16,02,05,18.30
2012,08,16,02,06,18.30
2012,08,16,02,07,18.30
2012,08,16,02,08,18.30
2012,08,16,02,09,18.30
2012,08,16,02,10,18.30
2012,08,16,02,11,18.30
2012,08,16,02,12,18.20
2012,08,16,02,13,18.20
2012,08,16,02,14,18.20
2012,08,16,02,15,18.20
2012,08,16,02,16,18.10
2012,08,16,02,17,18.10
2012,08,16,02,18,18.10
2012,08,16,02,19,18.10
2012,08,16,02,20,18.00
2012,08,16,02,21,18.00
2012,08,16,02,22,18.00
2012,08,16,02,23,18.00
2012,08,16,02,24,17.90
2012,08,16,02,25,17.90
2012,08,16,02,26,17.90
2012,08,16,02,27,17.90
2012,08,16,02,28,17.90
2012,08,16,02,29,17.90
2012,08,16,02,30,17.90
2012,08,16,02,31,17.90
2012,08,16,02,32,17.90
2012,08,16,02,33,17.90
2012,08,16,02,34,17.90
2012,08,16,02,35,17.90
2012,08,16,02,36,17.90
2012,08,16,02,37,17.90
2012,08,16,02,38,17.90
2012,08,16,02,39,17.90
2012,08,16,02,40,17.90
2012,08,16,02,41,17.90
2012,08,16,02,42,17.90
2012,08,16,02,43,17.90
2012,08,16,02,44,17.80
2012,08,16,02,45,17.80
2012,08,16,02,46,17.80
2012,08,16,02,47,17.80
2012,08,16,02,48,17.80
2012,08,16,02,49,17.80
2012,08,16,02,50,17.80
2012,08,16,02,51,17.80
2012,08,16,02,52,17.80
2012,08,16,02,53,17.80
2012,08,16,02,54,17.80
2012,08,16,02,55,17.90
2012,08,16,02,56,17.90
2012,08,16,02,57,18.00
2012,08,16,02,58,18.10
2012,08,16,02,59,18.20
2012,08,16,03,00,18.20
2012,08,16,03,01,18.30
2012,08,16,03,02,18.40
2012,08,16,03,03,18.40
2012,08,16,03,04,18.50
2012,08,16,03,05,18.60
2012,08,16,03,06,18.60
2012,08,16,03,07,18.60
2012,08,16,03,08,18.60
2012,08,16,03,09,18.60
2012,08,16,03,10,18.70
2012,08,16,03,11,18.70
2012,08,16,03,12,18.60
2012,08,16,03,13,18.60
2012,08,16,03,14,18.60
2012,08,16,03,15,18.60
2012,08,16,03,16,18.60
2012,08,16,03,17,18.50
2012,08,16,03,18,18.40
2012,08,16,03,19,18.40
2012,08,16,03,20,18.30
2012,08,16,03,21,18.30
2012,08,16,03,22,18.20
2012,08,16,03,23,18.20
2012,08,16,03,24,18.20
2012,08,16,03,25,18.10
2012,08,16,03,26,18.10
2012,08,16,03,27,18.10
2012,08,16,03,28,18.00
2012,08,16,03,29,18.00
2012,08,16,03,30,17.90
2012,08,16,03,31,17.90
2012,08,16,03,32,17.90
2012,08,16,03,33,17.80
2012,08,16,03,34,17.80
2012,08,16,03,35,17.80
2012,08,16,03,36,17.70
2012,08,16,03,37,17.70
2012,08,16,03,38,17.70
2012,08,16,03,39,17.60
2012,08,16,03,40,17.60
2012,08,16,03,41,17.60
2012,08,16,03,42,17.60
2012,08,16,03,43,17.50
2012,08,16,03,44,17.50
2012,08,16,03,45,17.50
2012,08,16,03,46,17.40
2012,08,16,03,47,17.40
2012,08,16,03,48,17.40
2012,08,16,03,49,17.30
2012,08,16,03,50,17.30
2012,08,16,03,51,17.30
2012,08,16,03,52,17.30
2012,08,16,03,53,17.30
2012,08,16,03,54,17.30
2012,08,16,03,55,17.30
2012,08,16,03,56,17.30
2012,08,16,03,57,17.30
2012,08,16,03,58,17.30
2012,08,16,03,59,17.30
2012,08,16,04,00,17.30
2012,08,16,04,01,17.30
2012,08,16,04,02,17.30
2012,08,16,04,03,17.30
2012,08,16,04,04,17.30
2012,08,16,04,05,17.30
2012,08,16,04,06,17.40
2012,08,16,04,07,17.40
2012,08,16,04,08,17.40
2012,08,16,04,09,17.40
2012,08,16,04,10,17.40
2012,08,16,04,11,17.40
2012,08,16,04,12,17.40
2012,08,16,04,13,17.40
2012,08,16,04,14,17.40
2012,08,16,04,15,17.40
2012,08,16,04,16,17.40
2012,08,16,04,17,17.40
2012,08,16,04,18,17.40
2012,08,16,04,19,17.50
2012,08,16,04,20,17.50
2012,08,16,04,21,17.50
2012,08,16,04,22,17.60
2012,08,16,04,23,17.60
2012,08,16,04,24,17.60
2012,08,16,04,25,17.60
2012,08,16,04,26,17.70
2012,08,16,04,27,17.70
2012,08,16,04,28,17.80
2012,08,16,04,29,17.80
2012,08,16,04,30,17.80
2012,08,16,04,31,17.80
2012,08,16,04,32,17.80
2012,08,16,04,33,17.80
2012,08,16,04,34,17.80
2012,08,16,04,35,17.70
2012,08,16,04,36,17.70
2012,08,16,04,37,17.70
2012,08,16,04,38,17.60
2012,08,16,04,39,17.60
2012,08,16,04,40,17.60
2012,08,16,04,41,17.50
2012,08,16,04,42,17.50
2012,08,16,04,43,17.40
2012,08,16,04,44,17.40
2012,08,16,04,45,17.30
2012,08,16,04,46,17.30
2012,08,16,04,47,17.30
2012,08,16,04,48,17.30
2012,08,16,04,49,17.30
2012,08,16,04,50,17.30
2012,08,16,04,51,17.20
2012,08,16,04,52,17.20
2012,08,16,04,53,17.20
2012,08,16,04,54,17.20
2012,08,16,04,55,17.20
2012,08,16,04,56,17.20
2012,08,16,04,57,17.20
2012,08,16,04,58,17.10
2012,08,16,04,59,17.10
2012,08,16,05,00,17.10
2012,08,16,05,01,17.10
2012,08,16,05,02,17.20
2012,08,16,05,03,17.10
2012,08,16,05,04,17.10
2012,08,16,05,05,17.10
2012,08,16,05,06,17.10
2012,08,16,05,07,17.10
2012,08,16,05,08,17.10
2012,08,16,05,09,17.10
2012,08,16,05,10,17.10
2012,08,16,05,11,17.00
2012,08,16,05,12,17.00
2012,08,16,05,13,17.00
2012,08,16,05,14,16.90
2012,08,16,05,15,16.90
2012,08,16,05,16,16.90
2012,08,16,05,17,16.90
2012,08,16,05,18,16.80
2012,08,16,05,19,16.80
2012,08,16,05,20,16.80
2012,08,16,05,21,16.80
2012,08,16,05,22,16.80
2012,08,16,05,23,16.70
2012,08,16,05,24,16.70
2012,08,16,05,25,16.70
2012,08,16,05,26,16.70
2012,08,16,05,27,16.60
2012,08,16,05,28,16.60
2012,08,16,05,29,16.60
2012,08,16,05,30,16.60
2012,08,16,05,31,16.60
2012,08,16,05,32,16.50
2012,08,16,05,33,16.50
2012,08,16,05,34,16.50
2012,08,16,05,35,16.40
2012,08,16,05,36,16.40
2012,08,16,05,37,16.40
2012,08,16,05,38,16.40
2012,08,16,05,39,16.40
2012,08,16,05,40,16.40
2012,08,16,05,41,16.40
2012,08,16,05,42,16.40
2012,08,16,05,43,16.40
2012,08,16,05,44,16.40
2012,08,16,05,45,16.40
2012,08,16,05,46,16.40
2012,08,16,05,47,16.40
2012,08,16,05,48,16.40
2012,08,16,05,49,16.40
2012,08,16,05,50,16.40
2012,08,16,05,51,16.40
2012,08,16,05,52,16.40
2012,08,16,05,53,16.40
2012,08,16,05,54,16.40
2012,08,16,05,55,16.40
2012,08,16,05,56,16.50
2012,08,16,05,57,16.50
2012,08,16,05,58,16.50
2012,08,16,05,59,16.50
2012,08,16,06,00,16.60
2012,08,16,06,01,16.60
2012,08,16,06,02,16.60
2012,08,16,06,03,16.70
2012,08,16,06,04,16.70
2012,08,16,06,05,16.70
2012,08,16,06,06,16.70
2012,08,16,06,07,16.70
2012,08,16,06,08,16.70
2012,08,16,06,09,16.70
2012,08,16,06,10,16.70
2012,08,16,06,11,16.70
2012,08,16,06,12,16.70
2012,08,16,06,13,16.70
2012,08,16,06,14,16.70
2012,08,16,06,15,16.70
2012,08,16,06,16,16.80
2012,08,16,06,17,16.80
2012,08,16,06,18,16.80
2012,08,16,06,19,16.80
2012,08,16,06,20,16.80
2012,08,16,06,21,16.80
2012,08,16,06,22,16.80
2012,08,16,06,23,16.80
2012,08,16,06,24,16.80
2012,08,16,06,25,16.80
2012,08,16,06,26,16.80
2012,08,16,06,27,16.80
2012,08,16,06,28,16.80
2012,08,16,06,29,16.80
2012,08,16,06,30,16.80
2012,08,16,06,31,16.80
2012,08,16,06,32,16.80
2012,08,16,06,33,16.80
2012,08,16,06,34,16.70
2012,08,16,06,35,16.70
2012,08,16,06,36,16.70
2012,08,16,06,37,16.70
2012,08,16,06,38,16.70
2012,08,16,06,39,16.70
2012,08,16,06,40,16.70
2012,08,16,06,41,16.70
2012,08,16,06,42,16.70
2012,08,16,06,43,16.70
2012,08,16,06,44,16.70
2012,08,16,06,45,16.70
2012,08,16,06,46,16.70
2012,08,16,06,47,16.70
2012,08,16,06,48,16.70
2012,08,16,06,49,16.70
2012,08,16,06,50,16.70
2012,08,16,06,51,16.70
2012,08,16,06,52,16.70
2012,08,16,06,53,16.70
2012,08,16,06,54,16.70
2012,08,16,06,55,16.70
2012,08,16,06,56,16.70
2012,08,16,06,57,16.70
2012,08,16,06,58,16.70
2012,08,16,06,59,16.70
2012,08,16,07,00,16.80
2012,08,16,07,01,16.80
2012,08,16,07,02,16.80
2012,08,16,07,03,16.90
2012,08,16,07,04,16.90
2012,08,16,07,05,16.90
2012,08,16,07,06,17.00
2012,08,16,07,07,17.10
2012,08,16,07,08,17.10
2012,08,16,07,09,17.10
2012,08,16,07,10,17.20
2012,08,16,07,11,17.20
2012,08,16,07,12,17.20
2012,08,16,07,13,17.30
2012,08,16,07,14,17.40
2012,08,16,07,15,17.40
2012,08,16,07,16,17.50
2012,08,16,07,17,17.60
2012,08,16,07,18,17.60
2012,08,16,07,19,17.70
2012,08,16,07,20,17.80
2012,08,16,07,21,17.80
2012,08,16,07,22,17.90
2012,08,16,07,23,18.00
2012,08,16,07,24,18.00
2012,08,16,07,25,18.10
2012,08,16,07,26,18.20
2012,08,16,07,27,18.30
2012,08,16,07,28,18.30
2012,08,16,07,29,18.40
2012,08,16,07,30,18.40
2012,08,16,07,31,18.40
2012,08,16,07,32,18.50
2012,08,16,07,33,18.50
2012,08,16,07,34,18.50
2012,08,16,07,35,18.60
2012,08,16,07,36,18.70
2012,08,16,07,37,18.70
2012,08,16,07,38,18.80
2012,08,16,07,39,18.90
2012,08,16,07,40,18.90
2012,08,16,07,41,19.00
2012,08,16,07,42,19.00
2012,08,16,07,43,19.10
2012,08,16,07,44,19.20
2012,08,16,07,45,19.20
2012,08,16,07,46,19.30
2012,08,16,07,47,19.30
2012,08,16,07,48,19.30
2012,08,16,07,49,19.30
2012,08,16,07,50,19.30
2012,08,16,07,51,19.30
2012,08,16,07,52,19.30
2012,08,16,07,53,19.30
2012,08,16,07,54,19.30
2012,08,16,07,55,19.40
2012,08,16,07,56,19.50
2012,08,16,07,57,19.50
2012,08,16,07,58,19.60
2012,08,16,07,59,19.60
2012,08,16,08,00,19.70
2012,08,16,08,01,19.70
2012,08,16,08,02,19.80
2012,08,16,08,03,19.80
2012,08,16,08,04,19.80
2012,08,16,08,05,19.90
2012,08,16,08,06,19.90
2012,08,16,08,07,20.00
2012,08,16,08,08,20.00
2012,08,16,08,09,20.10
2012,08,16,08,10,20.10
2012,08,16,08,11,20.20
2012,08,16,08,12,20.20
2012,08,16,08,13,20.30
2012,08,16,08,14,20.30
2012,08,16,08,15,20.40
2012,08,16,08,16,20.40
2012,08,16,08,17,20.50
2012,08,16,08,18,20.50
2012,08,16,08,19,20.60
2012,08,16,08,20,20.60
2012,08,16,08,21,20.70
2012,08,16,08,22,20.70
2012,08,16,08,23,20.80
2012,08,16,08,24,20.90
2012,08,16,08,25,20.90
2012,08,16,08,26,21.00
2012,08,16,08,27,21.10
2012,08,16,08,28,21.20
2012,08,16,08,29,21.20
2012,08,16,08,30,21.30
2012,08,16,08,31,21.40
2012,08,16,08,32,21.40
2012,08,16,08,33,21.50
2012,08,16,08,34,21.60
2012,08,16,08,35,21.60
2012,08,16,08,36,21.70
2012,08,16,08,37,21.70
2012,08,16,08,38,21.80
2012,08,16,08,39,21.80
2012,08,16,08,40,21.90
2012,08,16,08,41,22.00
2012,08,16,08,42,22.00
2012,08,16,08,43,22.10
2012,08,16,08,44,22.20
2012,08,16,08,45,22.20
2012,08,16,08,46,22.30
2012,08,16,08,47,22.30
2012,08,16,08,48,22.40
2012,08,16,08,49,22.50
2012,08,16,08,50,22.50
2012,08,16,08,51,22.60
2012,08,16,08,52,22.70
2012,08,16,08,53,22.70
2012,08,16,08,54,22.80
2012,08,16,08,55,22.90
2012,08,16,08,56,23.00
2012,08,16,08,57,23.00
2012,08,16,08,58,23.00
2012,08,16,08,59,23.10
2012,08,16,09,00,23.10
2012,08,16,09,01,23.10
2012,08,16,09,02,23.10
2012,08,16,09,03,23.20
2012,08,16,09,04,23.20
2012,08,16,09,05,23.20
2012,08,16,09,06,23.30
2012,08,16,09,07,23.30
2012,08,16,09,08,23.30
2012,08,16,09,09,23.30
2012,08,16,09,10,23.30
2012,08,16,09,11,23.30
2012,08,16,09,12,23.40
2012,08,16,09,13,23.40
2012,08,16,09,14,23.40
2012,08,16,09,15,23.40
2012,08,16,09,16,23.40
2012,08,16,09,17,23.40
2012,08,16,09,18,23.40
2012,08,16,09,19,23.40
2012,08,16,09,20,23.40
2012,08,16,09,21,23.40
2012,08,16,09,22,23.40
2012,08,16,09,23,23.40
2012,08,16,09,24,23.40
2012,08,16,09,25,23.40
2012,08,16,09,26,23.40
2012,08,16,09,27,23.40
2012,08,16,09,28,23.40
2012,08,16,09,29,23.40
2012,08,16,09,30,23.50
2012,08,16,09,31,23.50
2012,08,16,09,32,23.60
2012,08,16,09,33,23.60
2012,08,16,09,34,23.70
2012,08,16,09,35,23.70
2012,08,16,09,36,23.70
2012,08,16,09,37,23.70
2012,08,16,09,38,23.80
2012,08,16,09,39,23.80
2012,08,16,09,40,23.80
2012,08,16,09,41,23.80
2012,08,16,09,42,23.80
2012,08,16,09,43,23.90
2012,08,16,09,44,23.90
2012,08,16,09,45,23.90
2012,08,16,09,46,23.90
2012,08,16,09,47,24.00
2012,08,16,09,48,24.00
2012,08,16,09,49,24.10
2012,08,16,09,50,24.10
2012,08,16,09,51,24.10
2012,08,16,09,52,24.20
2012,08,16,09,53,24.20
2012,08,16,09,54,24.20
2012,08,16,09,55,24.20
2012,08,16,09,56,24.20
2012,08,16,09,57,24.20
2012,08,16,09,58,24.20
2012,08,16,09,59,24.20
2012,08,16,10,00,24.20
2012,08,16,10,01,24.20
2012,08,16,10,02,24.30
2012,08,16,10,03,24.30
2012,08,16,10,04,24.30
2012,08,16,10,05,24.30
2012,08,16,10,06,24.40
2012,08,16,10,07,24.40
2012,08,16,10,08,24.40
2012,08,16,10,09,24.40
2012,08,16,10,10,24.40
2012,08,16,10,11,24.40
2012,08,16,10,12,24.50
2012,08,16,10,13,24.50
2012,08,16,10,14,24.50
2012,08,16,10,15,24.60
2012,08,16,10,16,24.60
2012,08,16,10,17,24.70
2012,08,16,10,18,24.70
2012,08,16,10,19,24.80
2012,08,16,10,20,24.80
2012,08,16,10,21,24.90
2012,08,16,10,22,24.90
2012,08,16,10,23,25.00
2012,08,16,10,24,25.00
2012,08,16,10,25,25.10
2012,08,16,10,26,25.10
2012,08,16,10,27,25.10
2012,08,16,10,28,25.10
2012,08,16,10,29,25.20
2012,08,16,10,30,25.20
2012,08,16,10,31,25.20
2012,08,16,10,32,25.20
2012,08,16,10,33,25.30
2012,08,16,10,34,25.30
2012,08,16,10,35,25.30
2012,08,16,10,36,25.30
2012,08,16,10,37,25.30
2012,08,16,10,38,25.30
2012,08,16,10,39,25.40
2012,08,16,10,40,25.40
2012,08,16,10,41,25.40
2012,08,16,10,42,25.40
2012,08,16,10,43,25.40
2012,08,16,10,44,25.30
2012,08,16,10,45,25.30
2012,08,16,10,46,25.30
2012,08,16,10,47,25.30
2012,08,16,10,48,25.30
2012,08,16,10,49,25.20
2012,08,16,10,50,25.20
2012,08,16,10,51,25.20
2012,08,16,10,52,25.30
2012,08,16,10,53,25.30
2012,08,16,10,54,25.40
2012,08,16,10,55,25.40
2012,08,16,10,56,25.50
2012,08,16,10,57,25.50
2012,08,16,10,58,25.60
2012,08,16,10,59,25.60
2012,08,16,11,00,25.60
2012,08,16,11,01,25.70
2012,08,16,11,02,25.70
2012,08,16,11,03,25.70
2012,08,16,11,04,25.80
2012,08,16,11,05,25.80
2012,08,16,11,06,25.80
2012,08,16,11,07,25.80
2012,08,16,11,08,25.90
2012,08,16,11,09,25.90
2012,08,16,11,10,25.90
2012,08,16,11,11,25.80
2012,08,16,11,12,25.70
2012,08,16,11,13,25.70
2012,08,16,11,14,25.70
2012,08,16,11,15,25.70
2012,08,16,11,16,25.70
2012,08,16,11,17,25.70
2012,08,16,11,18,25.70
2012,08,16,11,19,25.70
2012,08,16,11,20,25.70
2012,08,16,11,21,25.70
2012,08,16,11,22,25.70
2012,08,16,11,23,25.70
2012,08,16,11,24,25.70
2012,08,16,11,25,25.80
2012,08,16,11,26,25.80
2012,08,16,11,27,25.80
2012,08,16,11,28,25.90
2012,08,16,11,29,25.80
2012,08,16,11,30,25.80
2012,08,16,11,31,25.90
2012,08,16,11,32,25.90
2012,08,16,11,33,25.90
2012,08,16,11,34,25.90
2012,08,16,11,35,25.90
2012,08,16,11,36,26.00
2012,08,16,11,37,26.10
2012,08,16,11,38,26.10
2012,08,16,11,39,26.20
2012,08,16,11,40,26.30
2012,08,16,11,41,26.30
2012,08,16,11,42,26.40
2012,08,16,11,43,26.40
2012,08,16,11,44,26.40
2012,08,16,11,45,26.50
2012,08,16,11,46,26.50
2012,08,16,11,47,26.50
2012,08,16,11,48,26.50
2012,08,16,11,49,26.60
2012,08,16,11,50,26.60
2012,08,16,11,51,26.70
2012,08,16,11,52,26.70
2012,08,16,11,53,26.80
2012,08,16,11,54,26.80
2012,08,16,11,55,26.90
2012,08,16,11,56,27.00
2012,08,16,11,57,27.00
2012,08,16,11,58,27.10
2012,08,16,11,59,27.00
2012,08,16,12,00,27.00
2012,08,16,12,01,27.00
2012,08,16,12,02,27.00
2012,08,16,12,03,27.00
2012,08,16,12,04,27.00
2012,08,16,12,05,27.00
2012,08,16,12,06,27.10
2012,08,16,12,07,27.10
2012,08,16,12,08,27.20
2012,08,16,12,09,27.30
2012,08,16,12,10,27.30
2012,08,16,12,11,27.40
2012,08,16,12,12,27.50
2012,08,16,12,13,27.60
2012,08,16,12,14,27.60
2012,08,16,12,15,27.60
2012,08,16,12,16,27.60
2012,08,16,12,17,27.60
2012,08,16,12,18,27.60
2012,08,16,12,19,27.60
2012,08,16,12,20,27.60
2012,08,16,12,21,27.50
2012,08,16,12,22,27.40
2012,08,16,12,23,27.40
2012,08,16,12,24,27.30
2012,08,16,12,25,27.40
2012,08,16,12,26,27.40
2012,08,16,12,27,27.50
2012,08,16,12,28,27.60
2012,08,16,12,29,27.60
2012,08,16,12,30,27.50
2012,08,16,12,31,27.50
2012,08,16,12,32,27.60
2012,08,16,12,33,27.70
2012,08,16,12,34,27.70
2012,08,16,12,35,27.70
2012,08,16,12,36,27.70
2012,08,16,12,37,27.60
2012,08,16,12,38,27.60
2012,08,16,12,39,27.50
2012,08,16,12,40,27.40
2012,08,16,12,41,27.50
2012,08,16,12,42,27.50
2012,08,16,12,43,27.60
2012,08,16,12,44,27.50
2012,08,16,12,45,27.50
2012,08,16,12,46,27.60
2012,08,16,12,47,27.60
2012,08,16,12,48,27.60
2012,08,16,12,49,27.50
2012,08,16,12,50,27.40
2012,08,16,12,51,27.40
2012,08,16,12,52,27.30
2012,08,16,12,53,27.20
2012,08,16,12,54,27.20
2012,08,16,12,55,27.20
2012,08,16,12,56,27.10
2012,08,16,12,57,27.10
2012,08,16,12,58,27.10
2012,08,16,12,59,27.20
2012,08,16,13,00,27.20
2012,08,16,13,01,27.30
2012,08,16,13,02,27.40
2012,08,16,13,03,27.40
2012,08,16,13,04,27.40
2012,08,16,13,05,27.40
2012,08,16,13,06,27.40
2012,08,16,13,07,27.40
2012,08,16,13,08,27.40
2012,08,16,13,09,27.50
2012,08,16,13,10,27.60
2012,08,16,13,11,27.70
2012,08,16,13,12,27.80
2012,08,16,13,13,27.90
2012,08,16,13,14,28.00
2012,08,16,13,15,28.00
2012,08,16,13,16,28.00
2012,08,16,13,17,28.10
2012,08,16,13,18,28.10
2012,08,16,13,19,28.10
2012,08,16,13,20,28.10
2012,08,16,13,21,28.10
2012,08,16,13,22,28.20
2012,08,16,13,23,28.20
2012,08,16,13,24,28.20
2012,08,16,13,25,28.20
2012,08,16,13,26,28.20
2012,08,16,13,27,28.20
2012,08,16,13,28,28.30
2012,08,16,13,29,28.30
2012,08,16,13,30,28.40
2012,08,16,13,31,28.40
2012,08,16,13,32,28.40
2012,08,16,13,33,28.30
2012,08,16,13,34,28.30
2012,08,16,13,35,28.30
2012,08,16,13,36,28.30
2012,08,16,13,37,28.40
2012,08,16,13,38,28.40
2012,08,16,13,39,28.40
2012,08,16,13,40,28.40
2012,08,16,13,41,28.40
2012,08,16,13,42,28.30
2012,08,16,13,43,28.20
2012,08,16,13,44,28.20
2012,08,16,13,45,28.10
2012,08,16,13,46,28.10
2012,08,16,13,47,28.10
2012,08,16,13,48,28.00
2012,08,16,13,49,28.00
2012,08,16,13,50,27.90
2012,08,16,13,51,28.00
2012,08,16,13,52,28.00
2012,08,16,13,53,28.10
2012,08,16,13,54,28.10
2012,08,16,13,55,28.20
2012,08,16,13,56,28.20
2012,08,16,13,57,28.20
2012,08,16,13,58,28.20
2012,08,16,13,59,28.20
2012,08,16,14,00,28.20
2012,08,16,14,01,28.30
2012,08,16,14,02,28.30
2012,08,16,14,03,28.30
2012,08,16,14,04,28.40
2012,08,16,14,05,28.50
2012,08,16,14,06,28.60
2012,08,16,14,07,28.60
2012,08,16,14,08,28.70
2012,08,16,14,09,28.70
2012,08,16,14,10,28.70
2012,08,16,14,11,28.70
2012,08,16,14,12,28.60
2012,08,16,14,13,28.60
2012,08,16,14,14,28.60
2012,08,16,14,15,28.60
2012,08,16,14,16,28.60
2012,08,16,14,17,28.70
2012,08,16,14,18,28.80
2012,08,16,14,19,28.90
2012,08,16,14,20,28.80
2012,08,16,14,21,28.80
2012,08,16,14,22,28.80
2012,08,16,14,23,28.80
2012,08,16,14,24,28.80
2012,08,16,14,25,28.90
2012,08,16,14,26,28.90
2012,08,16,14,27,29.00
2012,08,16,14,28,29.00
2012,08,16,14,29,29.10
2012,08,16,14,30,29.20
2012,08,16,14,31,29.20
2012,08,16,14,32,29.30
2012,08,16,14,33,29.20
2012,08,16,14,34,29.20
2012,08,16,14,35,29.30
2012,08,16,14,36,29.30
2012,08,16,14,37,29.30
2012,08,16,14,38,29.30
2012,08,16,14,39,29.20
2012,08,16,14,40,29.10
2012,08,16,14,41,29.10
2012,08,16,14,42,29.20
2012,08,16,14,43,29.30
2012,08,16,14,44,29.30
2012,08,16,14,45,29.30
2012,08,16,14,46,29.30
2012,08,16,14,47,29.30
2012,08,16,14,48,29.30
2012,08,16,14,49,29.30
2012,08,16,14,50,29.30
2012,08,16,14,51,29.30
2012,08,16,14,52,29.30
2012,08,16,14,53,29.40
2012,08,16,14,54,29.40
2012,08,16,14,55,29.40
2012,08,16,14,56,29.40
2012,08,16,14,57,29.40
2012,08,16,14,58,29.40
2012,08,16,14,59,29.40
2012,08,16,15,00,29.50
2012,08,16,15,01,29.50
2012,08,16,15,02,29.60
2012,08,16,15,03,29.60
2012,08,16,15,04,29.50
2012,08,16,15,05,29.50
2012,08,16,15,06,29.50
2012,08,16,15,07,29.50
2012,08,16,15,08,29.40
2012,08,16,15,09,29.40
2012,08,16,15,10,29.40
2012,08,16,15,11,29.50
2012,08,16,15,12,29.60
2012,08,16,15,13,29.60
2012,08,16,15,14,29.70
2012,08,16,15,15,29.70
2012,08,16,15,16,29.60
2012,08,16,15,17,29.60
2012,08,16,15,18,29.60
2012,08,16,15,19,29.60
2012,08,16,15,20,29.60
2012,08,16,15,21,29.60
2012,08,16,15,22,29.60
2012,08,16,15,23,29.70
2012,08,16,15,24,29.70
2012,08,16,15,25,29.80
2012,08,16,15,26,29.80
2012,08,16,15,27,29.90
2012,08,16,15,28,29.90
2012,08,16,15,29,30.00
2012,08,16,15,30,30.00
2012,08,16,15,31,30.00
2012,08,16,15,32,30.00
2012,08,16,15,33,30.10
2012,08,16,15,34,30.10
2012,08,16,15,35,30.00
2012,08,16,15,36,30.00
2012,08,16,15,37,30.00
2012,08,16,15,38,30.00
2012,08,16,15,39,30.10
2012,08,16,15,40,30.10
2012,08,16,15,41,30.10
2012,08,16,15,42,30.10
2012,08,16,15,43,30.10
2012,08,16,15,44,30.10
2012,08,16,15,45,30.00
2012,08,16,15,46,30.00
2012,08,16,15,47,29.90
2012,08,16,15,48,29.90
2012,08,16,15,49,29.80
2012,08,16,15,50,29.90
2012,08,16,15,51,29.90
2012,08,16,15,52,30.00
2012,08,16,15,53,30.10
2012,08,16,15,54,30.10
2012,08,16,15,55,30.10
2012,08,16,15,56,30.10
2012,08,16,15,57,30.10
2012,08,16,15,58,30.10
2012,08,16,15,59,30.00
2012,08,16,16,00,30.00
2012,08,16,16,01,29.90
2012,08,16,16,02,29.80
2012,08,16,16,03,29.80
2012,08,16,16,04,29.70
2012,08,16,16,05,29.80
2012,08,16,16,06,29.90
2012,08,16,16,07,29.90
2012,08,16,16,08,30.00
2012,08,16,16,09,30.10
2012,08,16,16,10,30.20
2012,08,16,16,11,30.20
2012,08,16,16,12,30.20
2012,08,16,16,13,30.20
2012,08,16,16,14,30.10
2012,08,16,16,15,30.10
2012,08,16,16,16,30.10
2012,08,16,16,17,30.10
2012,08,16,16,18,30.20
2012,08,16,16,19,30.20
2012,08,16,16,20,30.30
2012,08,16,16,21,30.30
2012,08,16,16,22,30.30
2012,08,16,16,23,30.30
2012,08,16,16,24,30.30
2012,08,16,16,25,30.30
2012,08,16,16,26,30.30
2012,08,16,16,27,30.30
2012,08,16,16,28,30.20
2012,08,16,16,29,30.20
2012,08,16,16,30,30.10
2012,08,16,16,31,30.10
2012,08,16,16,32,30.10
2012,08,16,16,33,30.10
2012,08,16,16,34,30.10
2012,08,16,16,35,30.10
2012,08,16,16,36,30.10
2012,08,16,16,37,30.10
2012,08,16,16,38,30.10
2012,08,16,16,39,30.20
2012,08,16,16,40,30.30
2012,08,16,16,41,30.30
2012,08,16,16,42,30.50
2012,08,16,16,43,30.60
2012,08,16,16,44,30.60
2012,08,16,16,45,30.70
2012,08,16,16,46,30.70
2012,08,16,16,47,30.70
2012,08,16,16,48,30.60
2012,08,16,16,49,30.50
2012,08,16,16,50,30.40
2012,08,16,16,51,30.30
2012,08,16,16,52,30.20
2012,08,16,16,53,30.20
2012,08,16,16,54,30.20
2012,08,16,16,55,30.20
2012,08,16,16,56,30.30
2012,08,16,16,57,30.30
2012,08,16,16,58,30.30
2012,08,16,16,59,30.30
2012,08,16,17,00,30.30
2012,08,16,17,01,30.20
2012,08,16,17,02,30.20
2012,08,16,17,03,30.20
2012,08,16,17,04,30.20
2012,08,16,17,05,30.10
2012,08,16,17,06,30.10
2012,08,16,17,07,30.10
2012,08,16,17,08,30.10
2012,08,16,17,09,30.10
2012,08,16,17,10,30.10
2012,08,16,17,11,30.10
2012,08,16,17,12,30.10
2012,08,16,17,13,30.10
2012,08,16,17,14,30.10
2012,08,16,17,15,30.10
2012,08,16,17,16,30.10
2012,08,16,17,17,30.20
2012,08,16,17,18,30.20
2012,08,16,17,19,30.30